| time (UTC) | temp F | wind direction | speed MPH | gust MPH | rain 1hr in | rain 24hr in | rain mn in | humidity % | barometer mb |
| 20260502182045 | 71 | 120 | 2.0 | 3.0 | 0.00 | 0.00 | 0.00 | 53 | 1021.5 |
| 20260502181045 | 72 | 154 | 0.0 | 2.0 | 0.00 | 0.00 | 0.00 | 52 | 1021.5 |
| 20260502164053 | 80 | 120 | 1.0 | 2.0 | 0.00 | 0.00 | 0.00 | 34 | 1021.5 |
| 20260502163032 | 80 | 211 | 1.0 | 2.0 | 0.00 | 0.00 | 0.00 | 34 | 1021.6 |
| 20260502162031 | 80 | 240 | 1.0 | 2.0 | 0.00 | 0.00 | 0.00 | 33 | 1021.8 |
| 20260502161030 | 79 | 41 | 1.0 | 3.0 | 0.00 | 0.00 | 0.00 | 34 | 1021.9 |
| 20260502152044 | 79 | 311 | 3.0 | 5.0 | 0.00 | 0.00 | 0.00 | 34 | 1022.3 |
| 20260502151023 | 77 | 359 | 2.0 | 4.0 | 0.00 | 0.00 | 0.00 | 34 | 1022.5 |
| 20260502140115 | 77 | 251 | 2.0 | 4.0 | 0.00 | 0.00 | 0.00 | 34 | 1023.4 |
| 20260502130108 | 76 | 241 | 4.0 | 5.0 | 0.00 | 0.00 | 0.00 | 38 | 1024.3 |
| 20260502123105 | 75 | 267 | 3.0 | 6.0 | 0.00 | 0.00 | 0.00 | 39 | 1024.6 |
| 20260502122124 | 75 | 238 | 2.0 | 5.0 | 0.00 | 0.00 | 0.00 | 39 | 1024.8 |
| 20260502121102 | 75 | 206 | 4.0 | 5.0 | 0.00 | 0.00 | 0.00 | 39 | 1024.8 |
| 20260502115100 | 74 | 222 | 3.0 | 4.0 | 0.00 | 0.00 | 0.00 | 39 | 1025.3 |
| 20260502114119 | 75 | 173 | 4.0 | 7.0 | 0.00 | 0.00 | 0.00 | 41 | 1025.3 |
| 20260502113058 | 73 | 344 | 2.0 | 5.0 | 0.00 | 0.00 | 0.00 | 41 | 1025.6 |
| 20260502112057 | 73 | 2 | 2.0 | 5.0 | 0.00 | 0.00 | 0.00 | 41 | 1025.7 |
| 20260502111056 | 73 | 73 | 3.0 | 6.0 | 0.00 | 0.00 | 0.00 | 44 | 1026.0 |
| 20260502110055 | 73 | 119 | 2.0 | 4.0 | 0.00 | 0.00 | 0.00 | 44 | 1026.1 |
| 20260502105054 | 72 | 95 | 2.0 | 4.0 | 0.00 | 0.00 | 0.00 | 45 | 1026.3 |
| 20260502104052 | 70 | 24 | 2.0 | 4.0 | 0.00 | 0.00 | 0.00 | 45 | 1026.4 |
| 20260502103111 | 70 | 93 | 4.0 | 6.0 | 0.00 | 0.00 | 0.00 | 47 | 1026.5 |
| 20260502102050 | 71 | 69 | 3.0 | 6.0 | 0.00 | 0.00 | 0.00 | 46 | 1026.7 |
| 20260502101049 | 69 | 70 | 2.0 | 3.0 | 0.00 | 0.00 | 0.00 | 47 | 1026.9 |
| 20260502100108 | 69 | 83 | 3.0 | 4.0 | 0.00 | 0.00 | 0.00 | 48 | 1027.0 |
| 20260502091042 | 66 | 15 | 3.0 | 5.0 | 0.00 | 0.00 | 0.00 | 53 | 1027.6 |
| 20260502071028 | 57 | 91 | 1.0 | 3.0 | 0.00 | 0.00 | 0.00 | 64 | 1028.3 |
| 20260502070048 | 57 | 92 | 3.0 | 5.0 | 0.00 | 0.00 | 0.00 | 65 | 1028.4 |
| 20260502065026 | 56 | 94 | 4.0 | 5.0 | 0.00 | 0.00 | 0.00 | 68 | 1028.5 |
| 20260502064025 | 55 | 112 | 2.0 | 4.0 | 0.00 | 0.00 | 0.00 | 71 | 1028.5 |
| 20260502063024 | 54 | 94 | 2.0 | 4.0 | 0.00 | 0.00 | 0.00 | 71 | 1028.5 |
| 20260502062022 | 53 | 122 | 3.0 | 4.0 | 0.00 | 0.00 | 0.00 | 71 | 1028.5 |
| 20260502061021 | 52 | 108 | 4.0 | 4.0 | 0.00 | 0.00 | 0.00 | 73 | 1028.5 |
| 20260502060021 | 51 | 117 | 3.0 | 4.0 | 0.00 | 0.00 | 0.00 | 75 | 1028.6 |
| 20260502055019 | 49 | 141 | 3.0 | 4.0 | 0.00 | 0.00 | 0.00 | 77 | 1028.5 |
| 20260502054018 | 48 | 145 | 3.0 | 5.0 | 0.00 | 0.00 | 0.00 | 79 | 1028.5 |
| 20260502053017 | 48 | 134 | 3.0 | 6.0 | 0.00 | 0.00 | 0.00 | 80 | 1028.5 |
| 20260502052115 | 47 | 42 | 3.0 | 6.0 | 0.00 | 0.00 | 0.00 | 82 | 1028.5 |
| 20260502051115 | 46 | 169 | 1.0 | 4.0 | 0.00 | 0.00 | 0.00 | 83 | 1028.4 |
| 20260502050114 | 46 | 148 | 4.0 | 8.0 | 0.00 | 0.00 | 0.00 | 82 | 1028.3 |
| 20260502045133 | 46 | 155 | 2.0 | 3.0 | 0.00 | 0.00 | 0.00 | 83 | 1028.5 |
| 20260502044111 | 45 | 114 | 5.0 | 6.0 | 0.00 | 0.00 | 0.00 | 85 | 1028.3 |
| 20260502043110 | 45 | 147 | 4.0 | 6.0 | 0.00 | 0.00 | 0.00 | 85 | 1028.2 |
| 20260502042129 | 45 | 150 | 3.0 | 6.0 | 0.00 | 0.00 | 0.00 | 85 | 1028.2 |
| 20260502041108 | 45 | 156 | 3.0 | 4.0 | 0.00 | 0.00 | 0.00 | 85 | 1028.3 |
| 20260502040107 | 45 | 52 | 4.0 | 6.0 | 0.00 | 0.00 | 0.00 | 85 | 1028.3 |
| 20260502035106 | 45 | 136 | 2.0 | 4.0 | 0.00 | 0.00 | 0.00 | 85 | 1028.3 |
| 20260502034105 | 45 | 144 | 4.0 | 7.0 | 0.00 | 0.00 | 0.00 | 85 | 1028.2 |
| 20260502033103 | 45 | 131 | 4.0 | 7.0 | 0.00 | 0.00 | 0.00 | 85 | 1028.3 |
| 20260502032102 | 45 | 128 | 2.0 | 3.0 | 0.00 | 0.00 | 0.00 | 86 | 1028.2 |
| 20260502031102 | 45 | 147 | 3.0 | 5.0 | 0.00 | 0.00 | 0.00 | 85 | 1028.2 |
| 20260502030100 | 45 | 144 | 3.0 | 4.0 | 0.00 | 0.00 | 0.00 | 85 | 1028.2 |
| 20260502025059 | 46 | 141 | 3.0 | 4.0 | 0.00 | 0.00 | 0.00 | 84 | 1028.2 |
| 20260502024058 | 46 | 134 | 4.0 | 5.0 | 0.00 | 0.00 | 0.00 | 84 | 1028.3 |
| 20260502023057 | 46 | 138 | 3.0 | 4.0 | 0.00 | 0.00 | 0.00 | 84 | 1028.3 |
| 20260502022055 | 46 | 131 | 2.0 | 3.0 | 0.00 | 0.00 | 0.00 | 84 | 1028.3 |
| 20260502021054 | 46 | 120 | 3.0 | 4.0 | 0.00 | 0.00 | 0.00 | 84 | 1028.3 |
| 20260502020114 | 46 | 125 | 3.0 | 4.0 | 0.00 | 0.00 | 0.00 | 83 | 1028.2 |
| 20260502015052 | 46 | 131 | 3.0 | 4.0 | 0.00 | 0.00 | 0.00 | 82 | 1028.2 |
| 20260502014051 | 47 | 117 | 3.0 | 4.0 | 0.00 | 0.00 | 0.00 | 82 | 1028.2 |
| 20260502013110 | 47 | 141 | 2.0 | 3.0 | 0.00 | 0.00 | 0.00 | 80 | 1028.2 |
| 20260502012048 | 47 | 145 | 3.0 | 4.0 | 0.00 | 0.00 | 0.00 | 81 | 1028.1 |
| 20260502011047 | 47 | 135 | 3.0 | 3.0 | 0.00 | 0.00 | 0.00 | 83 | 1028.3 |
| 20260502010046 | 46 | 111 | 2.0 | 3.0 | 0.00 | 0.00 | 0.00 | 83 | 1028.2 |
| 20260502005045 | 46 | 118 | 1.0 | 2.0 | 0.00 | 0.00 | 0.00 | 82 | 1028.1 |
| 20260502004043 | 47 | 115 | 2.0 | 3.0 | 0.00 | 0.00 | 0.00 | 81 | 1028.2 |
| 20260502003102 | 48 | 109 | 2.0 | 3.0 | 0.00 | 0.00 | 0.00 | 81 | 1028.2 |
| 20260502002042 | 48 | 104 | 2.0 | 2.0 | 0.00 | 0.00 | 0.00 | 79 | 1028.1 |
| 20260502001040 | 48 | 113 | 2.0 | 3.0 | 0.00 | 0.00 | 0.00 | 77 | 1028.3 |
| 20260502000039 | 49 | 119 | 2.0 | 2.0 | 0.00 | 0.00 | 0.00 | 77 | 1028.3 |
| 20260501235058 | 49 | 125 | 2.0 | 3.0 | 0.00 | 0.00 | 0.00 | 76 | 1028.2 |
| 20260501234057 | 49 | 120 | 2.0 | 3.0 | 0.00 | 0.00 | 0.00 | 74 | 1028.2 |
| 20260501233035 | 50 | 129 | 2.0 | 2.0 | 0.00 | 0.00 | 0.00 | 74 | 1028.2 |
| 20260501232034 | 50 | 133 | 3.0 | 3.0 | 0.00 | 0.00 | 0.00 | 75 | 1028.2 |
| 20260501231033 | 50 | 110 | 2.0 | 3.0 | 0.00 | 0.00 | 0.00 | 74 | 1028.2 |
| 20260501230032 | 51 | 114 | 3.0 | 4.0 | 0.00 | 0.00 | 0.00 | 72 | 1028.0 |
| 20260501225032 | 52 | 134 | 5.0 | 6.0 | 0.00 | 0.00 | 0.00 | 70 | 1028.0 |
| 20260501224030 | 52 | 158 | 5.0 | 7.0 | 0.00 | 0.00 | 0.00 | 67 | 1028.0 |
| 20260501223049 | 52 | 157 | 6.0 | 7.0 | 0.00 | 0.00 | 0.00 | 69 | 1028.1 |
| 20260501222027 | 53 | 136 | 4.0 | 5.0 | 0.00 | 0.00 | 0.00 | 68 | 1028.1 |
| 20260501221027 | 53 | 136 | 3.0 | 4.0 | 0.00 | 0.00 | 0.00 | 67 | 1028.0 |
| 20260501220046 | 53 | 139 | 3.0 | 4.0 | 0.00 | 0.00 | 0.00 | 67 | 1028.0 |
| 20260501215024 | 53 | 89 | 1.0 | 2.0 | 0.00 | 0.00 | 0.00 | 66 | 1028.0 |
| 20260501214023 | 54 | 125 | 1.0 | 2.0 | 0.00 | 0.00 | 0.00 | 67 | 1028.0 |
| 20260501213021 | 54 | 112 | 2.0 | 3.0 | 0.00 | 0.00 | 0.00 | 65 | 1028.0 |
| 20260501212040 | 55 | 138 | 2.0 | 3.0 | 0.00 | 0.00 | 0.00 | 64 | 1027.8 |
| 20260501211039 | 55 | 130 | 3.0 | 5.0 | 0.00 | 0.00 | 0.00 | 64 | 1027.8 |
| 20260501210018 | 55 | 116 | 0.0 | 3.0 | 0.00 | 0.00 | 0.00 | 63 | 1027.7 |
| 20260501205017 | 56 | 128 | 5.0 | 6.0 | 0.00 | 0.00 | 0.00 | 62 | 1027.8 |
| 20260501204117 | 56 | 124 | 5.0 | 6.0 | 0.00 | 0.00 | 0.00 | 62 | 1027.7 |
| 20260501203114 | 57 | 132 | 4.0 | 4.0 | 0.00 | 0.00 | 0.00 | 60 | 1027.7 |
| 20260501202113 | 57 | 134 | 5.0 | 7.0 | 0.00 | 0.00 | 0.00 | 60 | 1027.8 |
| 20260501201112 | 58 | 153 | 3.0 | 4.0 | 0.00 | 0.00 | 0.00 | 58 | 1027.7 |
| 20260501200111 | 58 | 136 | 3.0 | 4.0 | 0.00 | 0.00 | 0.00 | 58 | 1027.7 |
| 20260501195131 | 59 | 113 | 3.0 | 4.0 | 0.00 | 0.00 | 0.00 | 55 | 1027.6 |
| 20260501194109 | 60 | 79 | 2.0 | 3.0 | 0.00 | 0.00 | 0.00 | 55 | 1027.6 |
| 20260501193107 | 61 | 138 | 3.0 | 4.0 | 0.00 | 0.00 | 0.00 | 52 | 1027.4 |
| 20260501192126 | 61 | 129 | 3.0 | 4.0 | 0.00 | 0.00 | 0.00 | 51 | 1027.4 |
| 20260501191126 | 63 | 139 | 4.0 | 5.0 | 0.00 | 0.00 | 0.00 | 49 | 1027.3 |
| 20260501190105 | 64 | 128 | 2.0 | 2.0 | 0.00 | 0.00 | 0.00 | 48 | 1027.3 |
| 20260501185123 | 65 | 143 | 2.0 | 3.0 | 0.00 | 0.00 | 0.00 | 46 | 1027.2 |
| 20260501184102 | 66 | 118 | 3.0 | 4.0 | 0.00 | 0.00 | 0.00 | 44 | 1027.1 |
| 20260501183100 | 69 | 124 | 2.0 | 3.0 | 0.00 | 0.00 | 0.00 | 40 | 1027.1 |